#timestamp,LO_Frequency,Hit,StdDev 
1546146015.2,286047000.6,N
1546146035.0,286047000.6,N
1546146036.0,286047000.6,N
1546146055.8,286047000.9,N
1546146075.6,286047000.7,N
1546146095.5,286046998.9,N
1546146115.3,286046998.2,N
1546146135.1,286047000.0,N
1546146155.9,286047001.1,N
1546146175.7,286047001.3,N
1546146195.5,286047002.2,N
1546146215.4,286047001.8,N
1546146235.2,286047003.2,N
1546146255.1,286047001.8,N
1546146256.0,286047001.8,N
1546146275.8,286047000.5,N
1546146295.6,286047000.8,N
1546146315.5,286047000.7,N
1546146335.3,286047000.6,N
1546146355.1,286046998.5,N
1546146375.9,286046999.5,N
1546146395.7,286046999.4,N
1546146415.6,286046999.6,N
1546146435.4,286046998.8,N
1546146455.2,286047000.6,N
1546146475.1,286047000.0,N
1546146476.0,286047000.0,N
1546146495.8,286047001.8,N
1546146515.6,286047000.1,N
1546146535.5,286046999.9,N
1546146555.3,286047001.0,N
1546146575.2,286047001.2,N
1546146595.9,286046998.8,N
1546146615.7,286047001.2,N
1546146635.6,286047000.8,N
1546146655.4,286047002.2,N
1546146675.2,286047001.1,N
1546146695.1,286046998.9,N
1546146696.0,286046998.9,N
1546146715.8,286046999.5,N
1546146735.7,286047001.0,N
1546146755.5,286046998.6,N
1546146775.3,286047000.9,N
1546146795.2,286047002.8,N
1546146815.0,286047000.4,N
1546146815.9,286047000.4,N
1546146835.7,286046998.7,N
1546146855.6,286046997.4,N
1546146875.4,286046997.2,N
1546146895.3,286046995.7,Y
1546146915.1,286046996.4,P
1546146935.8,286046995.7,N
1546146955.7,286046997.6,N
1546146975.5,286046997.1,N
1546146995.4,286046997.5,N
1546147015.2,286046997.6,N
1546147035.0,286046994.9,Y
1546147035.9,286046994.9,P
1546147055.8,286047000.0,N
1546147075.6,286047000.4,N
1546147095.4,286047000.4,N
1546147115.3,286047000.5,N
1546147135.1,286047001.0,N
1546147155.9,286046999.9,N
1546147175.7,286046998.5,N
1546147195.5,286047001.2,N
1546147215.4,286047002.8,N
1546147235.2,286047000.4,N
1546147255.0,286046999.7,N
1546147255.9,286046999.7,N
1546147275.8,286047002.2,N
1546147295.6,286047002.7,N
1546147315.5,286047002.2,N
1546147335.3,286047000.3,N
1546147355.1,286046998.7,N
1546147375.9,286046999.6,N
1546147395.7,286047001.2,N
1546147415.5,286046998.7,N
1546147435.4,286046998.7,N
1546147455.2,286047000.6,N
1546147475.0,286047000.2,N
1546147476.0,286047000.2,N
1546147495.8,286047001.3,N
1546147515.6,286047001.9,N
1546147535.5,286047002.5,N
1546147555.3,286047000.3,N
1546147575.1,286046998.8,N
1546147595.9,286046999.2,N
1546147615.7,286046999.2,N
1546147635.6,286046996.5,N
1546147655.4,286046996.6,N
1546147675.2,286046998.8,N
1546147695.1,286046999.3,N
1546147696.0,286046999.3,N
1546147715.8,286046998.8,N
1546147735.6,286046998.6,N
1546147755.5,286046999.0,N
1546147775.3,286046998.4,N
1546147795.2,286046998.5,N
1546147815.9,286046998.4,N
1546147835.7,286046999.3,N
1546147855.6,286046998.8,N
1546147875.4,286046999.0,N
1546147895.2,286046998.8,N
1546147915.1,286046999.9,N
1546147916.0,286046999.9,N
1546147935.8,286047000.3,N
1546147955.7,286047000.3,N
1546147975.5,286047000.8,N
1546147995.3,286046999.9,N
1546148015.2,286047003.2,N
1546148035.0,286047004.4,Y
1546148035.9,286047004.4,P
1546148055.8,286047004.1,N
1546148075.6,286047003.6,N
1546148095.4,286047007.4,Y
1546148115.3,286047003.7,P
1546148135.1,286047004.4,P
1546148155.8,286047002.2,P
1546148175.7,286047001.9,N
1546148195.5,286047001.4,N
1546148215.4,286047000.4,N
1546148235.2,286046999.9,N
1546148255.0,286047000.1,N
1546148255.9,286047000.1,N
1546148275.8,286047000.2,N
1546148295.6,286047001.2,N
1546148315.4,286046999.0,N
1546148335.3,286046998.7,N
1546148355.1,286046998.9,N
1546148375.9,286046998.6,N
1546148395.7,286047001.0,N
1546148415.5,286046998.3,N
1546148435.4,286046996.5,N
1546148455.2,286046995.3,N
1546148475.0,286046995.4,N
1546148475.9,286046995.4,N
1546148495.8,286046997.5,N
1546148515.6,286046997.8,N
1546148535.5,286046995.1,N
1546148555.3,286046995.0,N
1546148575.1,286046995.1,N
1546148595.9,286046995.5,N
1546148615.7,286046997.1,N
1546148635.5,286046999.4,N
1546148655.4,286047000.7,N
1546148675.2,286047000.9,N
1546148695.0,286046999.9,N
1546148696.0,286046999.9,N
1546148715.8,286046998.5,N
1546148735.6,286046998.7,N
1546148755.5,286046999.6,N
1546148775.3,286046999.1,N
1546148795.1,286046997.0,N
1546148815.9,286046998.3,N
1546148835.7,286046998.7,N
1546148855.5,286046999.5,N
1546148875.4,286046997.3,N
1546148895.2,286046996.9,N
1546148915.1,286046999.5,N
1546148916.0,286046999.5,N
1546148935.8,286046997.2,N
1546148955.6,286046997.4,N
1546148975.5,286047001.0,N
1546148995.3,286046998.1,N
1546149015.2,286046996.6,N
1546149035.9,286047002.4,N
1546149055.7,286046999.8,N
1546149075.6,286047001.6,N
1546149095.4,286047000.0,N
1546149115.2,286047001.6,N
1546149135.1,286047002.1,N
1546149136.0,286047002.1,N
1546149155.8,286047001.9,N
1546149175.7,286047000.0,N
1546149195.5,286047002.8,N
1546149215.3,286047004.4,N
1546149235.2,286047002.2,N
1546149255.0,286047000.1,N
1546149255.9,286047000.1,N
1546149275.8,286047000.9,N
1546149295.6,286047002.4,N
1546149315.4,286047004.3,N
1546149335.3,286047000.9,N
1546149355.1,286046998.9,N
1546149375.8,286046998.4,N
1546149395.7,286046999.0,N
1546149415.5,286046999.6,N
1546149435.3,286046999.6,N
1546149455.2,286046999.0,N
1546149475.0,286046996.5,N
1546149475.9,286046996.5,N
1546149495.8,286046999.2,N
1546149515.6,286047000.3,N
1546149535.4,286047000.7,N
1546149555.3,286047000.6,N
1546149575.1,286047000.2,N
1546149595.9,286047001.1,N
